Location: Beekmeers
(50.8953°N, 3.6968°E)
Time: 13:32:04
(UTC+00:00)

SENTINEL 1B - Pass Details

Date: 18 October 2025
Orbit: 561 x 585 km, 98.1° (Epoch: 16 November)

Event Time Altitude Azimuth Distance (km) Brightness Sun altitude
Exits shadow 19:39:44 25° 353° (N) 1,193 7.0 -27.8°
Drops below altitude 10° 19:41:33 10° 349° (N) 1,922 8.2 -28.1°
Sets 19:43:44 0° 348° (NNW) 2,824 9.2 -28.4°
